Location: Risskov
(56.1972°N, 10.2480°E)
Time: 11:54:06
(UTC+00:00)

Cosmos 2074 Rocket - Pass Details

Date: 05 July 2020
Orbit: 967 x 986 km, 82.9° (Epoch: 07 August)

Event Time Altitude Azimuth Distance (km) Brightness Sun altitude
Exits shadow 21:29:14 - 181° (S) 3,155 6.1 -7.5°
Reaches altitude 10° 21:30:24 10° 180° (S) 2,717 5.8 -7.6°
Maximum altitude 21:36:36 73° 97° (E) 1,018 4.1 -7.9°
Drops below altitude 10° 21:42:48 10° 14° (NNE) 2,724 7.2 -8.3°
Sets 21:45:19 0° 13° (NNE) 3,674 8.0 -8.4°
